Regional Weather Roundup
Issued by NWS

Home | Current Version | Previous Version | Text Only | Print | Product List | Glossary Off
Versions: 1 2 3 4 5 6 7 8 9 10 11 12 13 14 15 16 17 18 19 20 21 22 23 24 25 26 27 28 29 30 31 32 33 34 35 36 37 38 39 40 41 42 43 44 45 46 47 48 49 50

000
ASUS43 KFSD 240210
RWRSD

WEATHER ROUNDUP FOR SOUTH DAKOTA
NATIONAL WEATHER SERVICE SIOUX FALLS SD
800 PM CST SUN NOV 23 2014

NOTE: "FAIR" INDICATES FEW OR NO CLOUDS BELOW 12,000 FEET WITH NO
SIGNIFICANT WEATHER AND/OR OBSTRUCTIONS TO VISIBILITY.


SDZ001>005-009-010-012>017-240300-
NORTHWEST AND NORTH CENTRAL SOUTH DAKOTA

CITY           SKY/WX    TMP DP  RH WIND       PRES   REMARKS
BUFFALO          N/A     24  18  77 NW21      29.67R WCI   9
FAITH            N/A     26  17  68 NW22G30   29.69S WCI  12
MOBRIDGE       CLOUDY    26  17  68 NW20G32   29.64F WCI  12
$$

SDZ012>016-024>037-041>051-057-063-072>074-240300-
SOUTHWEST AND SOUTH CENTRAL SOUTH DAKOTA

CITY           SKY/WX    TMP DP  RH WIND       PRES   REMARKS
RAPID CTY ARPT PTCLDY    32  22  66 N14       29.72S WCI  22
PIERRE         CLOUDY    29  21  72 NW16      29.68R WCI  17
CUSTER         PTCLDY    26  15  63 NW16G25   29.69S WCI  14
ELLSWORTH AFB  PTCLDY    34  23  65 N22G30    29.70S WCI  22
PHILIP         CLOUDY   N/A N/A N/A NW16      29.73S
PINE RIDGE     CLOUDY    35  23  61 NW12      29.76F WCI  27
SPEARFISH      CLOUDY    32  19  59 W18G32    29.75S WCI  20
WINNER         CLOUDY    32  21  64 NW26G35   29.68R WCI  18
$$

SDZ004>011-016>023-039-040-240300-
NORTHEAST SOUTH DAKOTA

CITY           SKY/WX    TMP DP  RH WIND       PRES   REMARKS
ABERDEEN       CLOUDY    24  14  65 NW23G31   29.64R WCI   9
WATERTOWN      CLOUDY    25  17  72 NW30G38   29.54S WCI   8
SISSETON         N/A     24  20  84 NW28G37   29.55R WCI   7
$$

SDZ017-020-022-023-036>040-048>070-240300-
SOUTHEAST SOUTH DAKOTA

CITY           SKY/WX    TMP DP  RH WIND       PRES   REMARKS
SIOUX FALLS    CLOUDY    29  21  72 NW23G31   29.56R WCI  15
HURON          CLOUDY    27  19  72 N16       29.63S WCI  15
CHAMBERLAIN    CLOUDY    30  21  68 NW21G28   29.66S WCI  17
YANKTON        CLOUDY    34  21  60 NW21G28   29.61R WCI  22
$$

ABBREVIATIONS USED IN REMARKS
   TC - TEMPERATURE IN CELSIUS
  WCI - WIND CHILL INDEX
   HX - HEAT INDEX
  VSB - VISIBILITY



USA.gov is the U.S. government's official web portal to all federal, state and local government web resources and services.